Date String (YYYY-MM-DD hh:mm:ss) UTC,Instrument flags,Ambient pressure (hPa),Sample flow (lpm),Bypass flow (lpm),Sample temperature (°C),Ambient temperature (°C),ASC tube jacket temperature (°C),LED temperature (°C),Box temperature (°C),Sample RH (%),Span deviation,Mass concentration (μg/m³),Mass concentration (μg/m³),Mass concentration (μg/m³)
DateTimeUTC,F1_M11,P_M11,Q1_M11,Q2_M11,T1_M11,T2_M11,T3_M11,T4_M11,T5_M11,U1_M11,ZSPAN_M11,X0_M11,X2_M11,X1_M11
2023-01-02 16:00:00,,0816.6,5.01,0.00,22.5,21.0,00.0,31.5,24.2,17.1,0000.0,0010.47,0008.00,0007.94
2023-01-02 16:01:00,,0816.7,5.01,0.00,22.5,21.2,00.0,31.4,24.2,17.1,0000.0,0010.40,0007.99,0007.94
2023-01-02 16:02:00,,0816.8,5.00,0.00,22.6,22.2,00.0,31.4,24.5,17.0,0000.0,0010.35,0007.97,0007.92
2023-01-02 16:03:00,,0817.0,4.99,0.00,22.7,22.8,00.0,31.4,24.7,16.8,0000.0,0010.27,0007.93,0007.89
2023-01-02 16:04:00,,0816.9,4.99,0.00,22.8,22.5,00.0,31.5,24.7,16.7,0000.0,0010.24,0007.90,0007.86
2023-01-02 16:05:00,,0816.9,5.00,0.00,22.8,22.2,00.0,31.5,24.6,16.7,0000.0,0010.22,0007.87,0007.83
2023-01-02 16:06:00,,0817.1,5.01,0.00,22.8,21.9,00.0,31.5,24.6,16.7,0000.0,0009.57,0007.84,0007.79
2023-01-02 16:07:00,,0817.2,5.01,0.00,22.8,21.7,00.0,31.5,24.5,16.7,0000.0,0009.50,0007.80,0007.77
2023-01-02 16:08:00,,0817.0,5.00,0.00,22.8,21.6,00.0,31.5,24.5,16.7,0000.0,0009.28,0007.77,0007.74
2023-01-02 16:09:00,,0816.8,5.00,0.00,22.7,21.5,00.0,31.5,24.5,16.7,0000.0,0009.28,0007.78,0007.75
2023-01-02 16:10:00,,0816.8,4.99,0.00,22.7,21.4,00.0,31.6,24.5,16.7,0000.0,0009.29,0007.79,0007.76
2023-01-02 16:11:00,,0816.9,5.00,0.00,22.7,21.3,00.0,31.5,24.4,16.6,0000.0,0009.30,0007.79,0007.76
2023-01-02 16:12:00,,0816.9,4.99,0.00,22.7,21.3,00.0,31.5,24.4,16.7,0000.0,0009.32,0007.82,0007.79
2023-01-02 16:13:00,,0816.9,5.00,0.00,22.7,21.2,00.0,31.5,24.4,16.7,0000.0,0009.37,0007.87,0007.83
2023-01-02 16:14:00,,0816.9,5.01,0.00,22.7,21.2,00.0,31.5,24.3,16.7,0000.0,0009.40,0007.90,0007.87
2023-01-02 16:15:00,,0816.8,5.01,0.00,22.6,21.1,00.0,31.5,24.3,16.7,0000.0,0009.44,0007.92,0007.89
2023-01-02 16:16:00,,0816.8,4.97,0.00,22.6,21.1,00.0,31.5,24.3,16.7,0000.0,0009.44,0007.92,0007.89
2023-01-02 16:17:00,,0816.9,4.99,0.00,22.6,21.0,00.0,31.5,24.2,16.7,0000.0,0009.43,0007.91,0007.87
2023-01-02 16:18:00,,0816.9,5.00,0.00,22.6,21.0,00.0,31.5,24.2,16.7,0000.0,0009.41,0007.88,0007.85
2023-01-02 16:19:00,,0816.8,5.00,0.00,22.5,21.1,00.0,31.4,24.2,16.8,0000.0,0009.40,0007.86,0007.82
2023-01-02 16:20:00,,0817.0,5.01,0.00,22.6,22.0,00.0,31.4,24.5,16.7,0000.0,0009.40,0007.83,0007.78
2023-01-02 16:21:00,,0817.2,4.99,0.00,22.7,22.8,00.0,31.4,24.7,16.7,0000.0,0009.39,0007.81,0007.76
2023-01-02 16:22:00,,0817.2,5.00,0.00,22.8,22.6,00.0,31.5,24.7,16.6,0000.0,0009.39,0007.79,0007.73
2023-01-02 16:23:00,,0817.1,5.00,0.00,22.8,22.2,00.0,31.5,24.6,16.6,0000.0,0009.41,0007.76,0007.69
2023-01-02 16:24:00,,0817.3,5.00,0.00,22.8,22.0,00.0,31.5,24.6,16.6,0000.0,0009.39,0007.73,0007.65
2023-01-02 16:25:00,,0816.9,5.00,0.00,22.8,21.7,00.0,31.5,24.5,16.6,0000.0,0009.35,0007.67,0007.59
2023-01-02 16:26:00,,0817.1,5.00,0.00,22.7,21.6,00.0,31.5,24.4,16.6,0000.0,0009.27,0007.58,0007.51
2023-01-02 16:27:00,,0817.0,5.00,0.00,22.7,21.4,00.0,31.5,24.4,16.6,0000.0,0009.18,0007.50,0007.43
2023-01-02 16:28:00,,0816.9,5.00,0.00,22.7,21.4,00.0,31.5,24.4,16.6,0000.0,0009.15,0007.46,0007.40
2023-01-02 16:29:00,,0816.9,5.00,0.00,22.7,21.2,00.0,31.5,24.4,16.6,0000.0,0009.10,0007.41,0007.35
2023-01-02 16:30:00,,0816.8,5.00,0.00,22.7,21.2,00.0,31.5,24.3,16.6,0000.0,0009.06,0007.37,0007.31
2023-01-02 16:31:00,,0816.9,5.01,0.00,22.6,21.1,00.0,31.5,24.3,16.7,0000.0,0009.05,0007.35,0007.29
2023-01-02 16:32:00,,0816.9,5.01,0.00,22.6,21.1,00.0,31.5,24.3,16.7,0000.0,0009.05,0007.33,0007.27
2023-01-02 16:33:00,,0817.0,5.00,0.00,22.6,21.1,00.0,31.5,24.3,16.7,0000.0,0009.01,0007.30,0007.24
2023-01-02 16:34:00,,0817.1,5.00,0.00,22.6,21.1,00.0,31.5,24.3,16.8,0000.0,0008.92,0007.24,0007.20
2023-01-02 16:35:00,,0817.4,5.00,0.00,22.6,21.1,00.0,31.5,24.3,16.8,0000.0,0008.90,0007.21,0007.17
2023-01-02 16:36:00,,0817.2,5.00,0.00,22.6,21.0,00.0,31.5,24.2,16.9,0000.0,0008.85,0007.17,0007.14
2023-01-02 16:37:00,,0817.0,5.01,0.00,22.6,21.1,00.0,31.4,24.2,16.9,0000.0,0008.92,0007.18,0007.14
2023-01-02 16:38:00,,0816.9,5.01,0.00,22.6,22.0,00.0,31.4,24.5,16.9,0000.0,0008.97,0007.20,0007.16
2023-01-02 16:39:00,,0817.0,5.00,0.00,22.7,22.8,00.0,31.4,24.7,16.8,0000.0,0008.98,0007.22,0007.17
2023-01-02 16:40:00,,0817.0,5.00,0.00,22.8,22.7,00.0,31.5,24.8,16.8,0000.0,0009.00,0007.23,0007.18
2023-01-02 16:41:00,,0816.9,4.99,0.00,22.8,22.4,00.0,31.5,24.7,16.8,0000.0,0009.02,0007.24,0007.18
2023-01-02 16:42:00,,0816.9,4.99,0.00,22.8,22.1,00.0,31.5,24.7,16.8,0000.0,0009.02,0007.24,0007.17
2023-01-02 16:43:00,,0816.9,5.00,0.00,22.8,21.9,00.0,31.6,24.6,16.8,0000.0,0009.00,0007.21,0007.15
2023-01-02 16:44:00,,0816.9,5.00,0.00,22.8,21.7,00.0,31.6,24.6,16.8,0000.0,0008.99,0007.20,0007.14
2023-01-02 16:45:00,,0816.9,5.00,0.00,22.8,21.6,00.0,31.6,24.6,16.8,0000.0,0009.00,0007.19,0007.13
2023-01-02 16:46:00,,0816.9,5.00,0.00,22.8,21.5,00.0,31.6,24.5,16.8,0000.0,0009.08,0007.19,0007.11
2023-01-02 16:47:00,,0816.9,5.00,0.00,22.8,21.4,00.0,31.6,24.5,16.8,0000.0,0009.12,0007.20,0007.12
2023-01-02 16:48:00,,0817.0,4.99,0.00,22.7,21.3,00.0,31.6,24.5,16.8,-000.3,0009.07,0007.20,0007.12
2023-01-02 16:49:00,,0817.0,5.00,0.00,22.7,21.3,00.0,31.6,24.4,16.9,-000.5,0009.01,0007.16,0007.08
2023-01-02 16:50:00,,0817.0,4.99,0.00,22.7,21.2,00.0,31.6,24.4,16.9,0000.0,0008.98,0007.13,0007.06
2023-01-02 16:51:00,,0817.0,5.02,0.00,22.7,21.2,00.0,31.5,24.4,16.9,0000.0,0008.96,0007.13,0007.06
2023-01-02 16:52:00,,0816.9,5.00,0.00,22.7,21.2,00.0,31.5,24.3,17.0,0000.0,0009.00,0007.16,0007.10
2023-01-02 16:53:00,,0817.0,5.01,0.00,22.6,21.1,00.0,31.5,24.3,17.0,0000.0,0009.03,0007.19,0007.13
2023-01-02 16:54:00,,0817.0,4.99,0.00,22.6,21.1,00.0,31.5,24.3,17.1,0000.0,0009.05,0007.22,0007.17
2023-01-02 16:55:00,,0817.0,5.00,0.00,22.6,21.0,00.0,31.5,24.2,17.2,0000.0,0009.08,0007.23,0007.18
2023-01-02 16:56:00,,0817.0,4.99,0.00,22.6,21.0,00.0,31.5,24.2,17.8,0000.0,0009.09,0007.26,0007.22
2023-01-02 16:57:00,,0817.0,5.00,0.00,22.6,21.0,00.0,31.5,24.2,17.4,0000.0,0009.05,0007.29,0007.25
2023-01-02 16:58:00,,0817.0,5.01,0.00,22.6,21.6,00.0,31.4,24.4,17.3,0000.0,0009.03,0007.30,0007.26
2023-01-02 16:59:00,,0817.0,5.00,0.00,22.7,22.6,00.0,31.4,24.6,17.1,0000.8,0009.09,0007.34,0007.29
